Location: Prosper
(33.2362°N, 96.8011°W)
Time: 01:45:27
(UTC+00:00)

Cosmos 1515 Rocket - Pass Details

Date: 03 December 2021
Orbit: 605 x 631 km, 82.5° (Epoch: 17 January)

Event Time Altitude Azimuth Distance (km) Brightness Sun altitude
Rises 12:22:43 0° 356° (N) 2,882 6.8 -10.8°
Reaches altitude 10° 12:24:57 10° 359° (N) 1,970 5.9 -10.4°
Maximum altitude 12:29:18 70° 82° (E) 647 3.9 -9.5°
Drops below altitude 10° 12:33:35 10° 167° (SSE) 1,947 6.6 -8.7°
Sets 12:35:48 0° 170° (S) 2,844 7.4 -8.3°
